This demonstration page uses our WeatherBlox Daily Observations layout. Learn more.

Left ArrowRight Arrow

44.8408, -93.29828

Hourly Observations for October 11, 2021

Temp ( °F °C ) Dew Point ( °F °C ) Humidity (%) Winds ( mph kmh ) Pressure ( in mb ) Visibility ( mi km ) Precip ( " mm )
12:53 am 00:53 Mostly Clear 53 11.7 46 7.8 77 77 SW 7 11 29.62 1003 10 16 0.00 0.00
1:53 am 01:53 Mostly Clear 52 11.1 46 7.8 80 80 WSW 5 7 29.62 1003 10 16 0.00 0.00
2:11 am 02:11 Mostly Cloudy 52 11.1 46 7.8 80 80 SW 7 11 29.65 1004 10 16 0.00 0.00
2:36 am 02:36 Cloudy 53 11.7 47 8.3 80 80 WSW 6 9 29.63 1004 10 16 0.00 0.00
2:53 am 02:53 Cloudy 53 11.7 47 8.3 80 80 WSW 7 11 29.63 1003 10 16 0.00 0.00
3:08 am 03:08 Cloudy 53 11.7 47 8.3 80 80 SW 7 11 29.65 1004 10 16 0.00 0.00
3:53 am 03:53 Mostly Cloudy 52 11.1 46 7.8 80 80 WSW 6 9 29.65 1004 10 16 0.00 0.00
4:53 am 04:53 Partly Cloudy 51 10.6 46 7.8 83 83 WSW 7 11 29.66 1004 10 16 0.00 0.00
5:18 am 05:18 Mostly Cloudy 51 10.6 45 7.2 80 80 WSW 6 9 29.67 1005 10 16 0.00 0.00
5:36 am 05:36 Partly Cloudy 50 10 45 7.2 83 83 WSW 6 9 29.68 1005 10 16 0.00 0.00
5:53 am 05:53 Mostly Clear 50 10 45 7.2 83 83 WSW 3 6 29.67 1005 10 16 0.00 0.00
6:53 am 06:53 Mostly Clear 50 10 44 6.7 80 80 Calm 29.67 1005 10 16 0.00 0.00
7:53 am 07:53 Mostly Cloudy 50 10 44 6.7 80 80 SW 5 7 29.69 1005 10 16 0.00 0.00
8:53 am 08:53 Partly Cloudy 51 10.6 44 6.7 77 77 Calm 29.70 1006 10 16 0.00 0.00
9:53 am 09:53 Mostly Cloudy 55 12.8 45 7.2 69 69 Calm 29.70 1006 10 16 0.00 0.00
10:53 am 10:53 Partly Cloudy 57 13.9 45 7.2 64 64 SSE 3 6 29.70 1006 10 16 0.00 0.00
11:53 am 11:53 Partly Cloudy 62 16.7 46 7.8 56 56 Calm 29.68 1005 10 16 0.00 0.00
12:53 pm 12:53 Partly Cloudy 66 18.9 44 6.7 45 45 NE 5 7 29.67 1005 10 16 0.00 0.00
1:53 pm 13:53 Mostly Cloudy 66 18.9 45 7.2 47 47 VRB 6 9 29.67 1005 10 16 0.00 0.00
2:53 pm 14:53 Mostly Cloudy 68 20 44 6.7 42 42 Calm 29.67 1005 10 16 0.00 0.00
3:53 pm 15:53 Mostly Cloudy 71 21.7 44 6.7 38 38 WNW 6 9 29.67 1005 10 16 0.00 0.00
4:53 pm 16:53 Sunny 70 21.1 47 8.3 44 44 N 8 13 29.68 1005 10 16 0.00 0.00
5:53 pm 17:53 Mostly Cloudy 68 20 48 8.9 49 49 NNW 9 15 29.70 1006 10 16 0.00 0.00
6:53 pm 18:53 Mostly Cloudy 65 18.3 48 8.9 54 54 N 7 11 29.72 1007 10 16 0.00 0.00
7:53 pm 19:53 Partly Cloudy 64 17.8 50 10 60 60 N 8 13 29.74 1007 10 16 0.00 0.00
8:53 pm 20:53 Mostly Clear 63 17.2 51 10.6 65 65 N 9 15 29.76 1008 10 16 0.00 0.00
9:53 pm 21:53 Partly Cloudy 60 15.6 51 10.6 72 72 NNE 10 17 29.78 1009 10 16 0.00 0.00
10:28 pm 22:28 Mostly Cloudy 60 15.6 52 11.1 75 75 N 12 19 29.78 1009 10 16 0.00 0.00
10:53 pm 22:53 Mostly Cloudy 60 15.6 52 11.1 75 75 NNE 9 15 29.80 1009 10 16 0.00 0.00
11:53 pm 23:53 Mostly Cloudy 60 15.6 52 11.1 75 75 N 9 15 29.81 1009 10 16 0.00 0.00

Powered by AerisWeather